Weather History for Mount Vernon, IL

Change the Weather History Date:

Saturday, October 19, 2013

  Actual Average Record
Temperature  
Mean Temperature 46 °F -  
Max Temperature 57 °F 64 °F 84 °F (2005)
Min Temperature 35 °F 42 °F 30 °F (1996)
Degree Days  
Heating Degree Days 19    
Moisture  
Dew Point 38 °F    
Average Humidity 73    
Maximum Humidity 93    
Minimum Humidity 41    
Precipitation  
Precipitation 0.21 in - - ()
Sea Level Pressure  
Sea Level Pressure 30.00 in    
Wind  
Wind Speed 3 mph (West)    
Max Wind Speed 15 mph    
Max Gust Speed 20 mph    
Visibility 10 miles    
Events      
Averages and records for this station are not official NWS values.
T = Trace of Precipitation, MM = Missing Value Source: NWS Daily Summary

Daily Weather History Graph

Daily Weather History Graph

Search for Another Location

Airport:

Trip Planner

Search our weather history database for the weather conditions in past years. The results will help you decide how hot, cold, wet, or windy it might be!

Date:

Astronomy

Oct. 19, 2013 Rise Set
Actual Time 7:08 AM CDT 6:11 PM CDT
Civil Twilight 6:41 AM CDT 6:38 PM CDT
Nautical Twilight 6:10 AM CDT 7:09 PM CDT
Astronomical Twilight 5:40 AM CDT 7:39 PM CDT
Moon 6:40 PM CDT 7:45 AM CDT
Length of Visible Light 11h 56m
Length of Day
11h 03m
Waxing Gibbous, 99% of the Moon is Illuminated
Oct 19
Waxing Gibbous
Oct 26
Last Quarter
Nov 3
New
Nov 9
First Quarter
Nov 17
Full

Hourly Weather History & Observations

Time (CDT) Temp. Windchill Dew Point Humidity Pressure Visibility Wind Dir Wind Speed Gust Speed Precip Events Conditions
12:15 AM 48.2 °F - 42.8 °F 82% 29.98 in 10.0 mi Calm Calm - 0.01 in   Overcast
12:35 AM 48.2 °F - 42.8 °F 82% 29.98 in 10.0 mi Calm Calm - 0.02 in   Overcast
12:55 AM 48.2 °F - 42.8 °F 82% 29.98 in 10.0 mi Calm Calm - 0.03 in   Overcast
1:15 AM 48.2 °F - 44.6 °F 87% 29.99 in 10.0 mi Calm Calm - N/A   Overcast
1:35 AM 48.2 °F - 44.6 °F 87% 29.98 in 10.0 mi Calm Calm - N/A   Overcast
1:55 AM 46.4 °F - 42.8 °F 87% 29.98 in 9.0 mi Calm Calm - 0.01 in   Overcast
2:15 AM 46.4 °F 45.2 °F 42.8 °F 87% 29.95 in 10.0 mi NNE 3.5 mph - 0.02 in   Overcast
2:35 AM 46.4 °F - 42.8 °F 87% 29.95 in 10.0 mi Calm Calm - 0.02 in   Overcast
2:55 AM 46.4 °F 44.3 °F 42.8 °F 87% 29.98 in 8.0 mi West 4.6 mph - 0.03 in   Overcast
3:15 AM 46.4 °F - 42.8 °F 87% 29.97 in 10.0 mi Calm Calm - 0.02 in   Overcast
3:35 AM 46.4 °F 45.2 °F 42.8 °F 87% 29.97 in 5.0 mi NNW 3.5 mph - 0.02 in   Overcast
3:55 AM 46.4 °F - 42.8 °F 87% 29.96 in 8.0 mi Calm Calm - 0.02 in   Overcast
4:15 AM 44.6 °F - 42.8 °F 93% 29.96 in 10.0 mi Calm Calm - 0.02 in   Overcast
4:35 AM 44.6 °F 43.1 °F 41.0 °F 87% 29.96 in 10.0 mi North 3.5 mph - 0.02 in   Overcast
4:55 AM 44.6 °F - 41.0 °F 87% 29.97 in 10.0 mi Calm Calm - 0.03 in   Overcast
5:15 AM 44.6 °F - 41.0 °F 87% 29.97 in 8.0 mi Calm Calm - 0.01 in   Overcast
5:35 AM 44.6 °F - 41.0 °F 87% 29.97 in 7.0 mi Calm Calm - 0.03 in   Overcast
5:55 AM 44.6 °F 43.1 °F 41.0 °F 87% 29.98 in 10.0 mi WNW 3.5 mph - 0.06 in   Overcast
6:15 AM 44.6 °F - 39.2 °F 81% 29.97 in 10.0 mi Calm Calm - 0.01 in   Overcast
6:35 AM 44.6 °F 43.1 °F 39.2 °F 81% 29.98 in 10.0 mi West 3.5 mph - 0.02 in   Mostly Cloudy
6:55 AM 44.6 °F 43.1 °F 39.2 °F 81% 29.98 in 10.0 mi West 3.5 mph - 0.03 in   Overcast
7:15 AM 42.8 °F 39.3 °F 39.2 °F 87% 29.99 in 10.0 mi West 5.8 mph - N/A   Overcast
7:35 AM 42.8 °F 40.1 °F 39.2 °F 87% 30.00 in 10.0 mi West 4.6 mph - N/A   Overcast
7:55 AM 42.8 °F 41.1 °F 39.2 °F 87% 30.00 in 10.0 mi West 3.5 mph - N/A   Overcast
8:15 AM 42.8 °F 40.1 °F 37.4 °F 81% 30.00 in 10.0 mi NNW 4.6 mph - N/A   Overcast
8:35 AM 42.8 °F 40.1 °F 37.4 °F 81% 30.01 in 10.0 mi WNW 4.6 mph - N/A   Overcast
8:55 AM 41.0 °F - 35.6 °F 81% 30.01 in 10.0 mi Calm Calm - N/A   Mostly Cloudy
9:15 AM 42.8 °F 38.6 °F 35.6 °F 76% 30.01 in 10.0 mi WNW 6.9 mph - N/A   Mostly Cloudy
9:35 AM 44.6 °F 41.4 °F 37.4 °F 76% 30.01 in 10.0 mi WNW 5.8 mph - N/A   Mostly Cloudy
9:55 AM 44.6 °F 40.7 °F 37.4 °F 76% 30.02 in 10.0 mi West 6.9 mph - N/A   Mostly Cloudy
10:15 AM 46.4 °F 42.9 °F 37.4 °F 71% 30.02 in 10.0 mi West 6.9 mph - N/A   Mostly Cloudy
10:35 AM 46.4 °F 44.3 °F 37.4 °F 71% 30.02 in 10.0 mi WNW 4.6 mph - N/A   Mostly Cloudy
10:55 AM 48.2 °F - 37.4 °F 66% 30.02 in 10.0 mi West 10.4 mph - N/A   Scattered Clouds
11:15 AM 48.2 °F - 37.4 °F 66% 30.03 in 10.0 mi West 8.1 mph - N/A   Scattered Clouds
11:35 AM 48.2 °F - 37.4 °F 66% 30.02 in 10.0 mi West 5.8 mph - N/A   Partly Cloudy
11:55 AM 51.8 °F - 37.4 °F 58% 30.02 in 10.0 mi WNW 5.8 mph - N/A   Scattered Clouds
12:15 PM 50.0 °F - 35.6 °F 58% 30.02 in 10.0 mi West 3.5 mph - N/A   Scattered Clouds
12:35 PM 51.8 °F - 37.4 °F 58% 30.02 in 10.0 mi West 8.1 mph - N/A   Scattered Clouds
12:55 PM 51.8 °F - 35.6 °F 54% 30.01 in 10.0 mi Calm Calm - N/A   Scattered Clouds
1:15 PM 53.6 °F - 35.6 °F 51% 30.01 in 10.0 mi West 8.1 mph 17.3 mph N/A   Scattered Clouds
1:35 PM 53.6 °F - 35.6 °F 51% 30.00 in 10.0 mi WSW 10.4 mph - N/A   Partly Cloudy
1:55 PM 53.6 °F - 37.4 °F 54% 30.00 in 10.0 mi WNW 5.8 mph - N/A   Clear
2:15 PM 55.4 °F - 35.6 °F 47% 30.00 in 10.0 mi WSW 12.7 mph - N/A   Partly Cloudy
2:35 PM 55.4 °F - 35.6 °F 47% 29.99 in 10.0 mi West 6.9 mph - N/A   Clear
2:55 PM 55.4 °F - 35.6 °F 47% 29.99 in 10.0 mi WSW 15.0 mph - N/A   Scattered Clouds
3:15 PM 55.4 °F - 35.6 °F 47% 29.99 in 10.0 mi SW 10.4 mph 18.4 mph N/A   Scattered Clouds
3:35 PM 57.2 °F - 35.6 °F 44% 29.99 in 10.0 mi West 10.4 mph - N/A   Partly Cloudy
3:55 PM 57.2 °F - 35.6 °F 44% 29.99 in 10.0 mi WSW 11.5 mph - N/A   Scattered Clouds
4:15 PM 55.4 °F - 33.8 °F 44% 29.99 in 10.0 mi WSW 10.4 mph 19.6 mph N/A   Mostly Cloudy
4:35 PM 57.2 °F - 33.8 °F 41% 29.99 in 10.0 mi WSW 11.5 mph - N/A   Scattered Clouds
4:55 PM 55.4 °F - 35.6 °F 47% 29.99 in 10.0 mi WSW 9.2 mph - N/A   Clear
5:15 PM 55.4 °F - 33.8 °F 44% 29.98 in 10.0 mi WSW 9.2 mph - N/A   Clear
5:35 PM 55.4 °F - 33.8 °F 44% 29.98 in 10.0 mi SW 9.2 mph - N/A   Clear
5:55 PM 53.6 °F - 35.6 °F 51% 29.98 in 10.0 mi SW 9.2 mph - N/A   Clear
6:15 PM 48.2 °F - 35.6 °F 62% 29.98 in 10.0 mi SW 5.8 mph - N/A   Clear
6:35 PM 48.2 °F - 35.6 °F 62% 29.99 in 10.0 mi SW 4.6 mph - N/A   Clear
6:55 PM 46.4 °F 45.2 °F 35.6 °F 66% 29.99 in 10.0 mi SW 3.5 mph - N/A   Clear
7:15 PM 46.4 °F 44.3 °F 35.6 °F 66% 29.99 in 10.0 mi SSW 4.6 mph - N/A   Clear
7:35 PM 44.6 °F - 35.6 °F 71% 30.00 in 10.0 mi Calm Calm - N/A   Clear
7:55 PM 42.8 °F - 35.6 °F 76% 30.00 in 10.0 mi Calm Calm - N/A   Clear
8:15 PM 42.8 °F - 35.6 °F 76% 30.00 in 10.0 mi Calm Calm - N/A   Clear
8:35 PM 42.8 °F - 35.6 °F 76% 30.01 in 10.0 mi Calm Calm - N/A   Clear
8:55 PM 39.2 °F - 35.6 °F 87% 30.01 in 10.0 mi Calm Calm - N/A   Clear
9:15 PM 39.2 °F - 35.6 °F 87% 30.01 in 10.0 mi Calm Calm - N/A   Clear
9:35 PM 39.2 °F - 35.6 °F 87% 30.01 in 10.0 mi Calm Calm - N/A   Clear
9:55 PM 39.2 °F - 35.6 °F 87% 30.02 in 10.0 mi Calm Calm - N/A   Clear
10:15 PM 39.2 °F - 33.8 °F 81% 30.02 in 10.0 mi Calm Calm - N/A   Clear
10:35 PM 39.2 °F - 35.6 °F 87% 30.02 in 10.0 mi Calm Calm - N/A   Clear
10:55 PM 37.4 °F - 33.8 °F 87% 30.03 in 9.0 mi Calm Calm - N/A   Clear
11:15 PM 35.6 °F - 33.8 °F 93% 30.03 in 8.0 mi Calm Calm - N/A   Clear
11:35 PM 39.2 °F - 35.6 °F 87% 30.02 in 10.0 mi Calm Calm - N/A   Clear
11:55 PM 39.2 °F - 35.6 °F 87% 30.01 in 10.0 mi Calm Calm - N/A   Clear